Custer, SD

5:45 PM MDT on May 26, 2018 (GMT -0600)
Custer County

Weather History for KCUT - May, 2013

Change the Weather History Date:

Thursday, May 23, 2013

  Actual Average Record
Temperature  
Mean Temperature 48 °F 50 °F  
Max Temperature 56 °F 62 °F 84 °F (1972)
Min Temperature 40 °F 38 °F 22 °F (1959)
Degree Days  
Heating Degree Days 17 15  
Month to date heating degree days 385 411  
Since 1 July heating degree days 7989 8061  
Cooling Degree Days 0 0  
Month to date cooling degree days 2 0  
Year to date cooling degree days 2 0  
Moisture  
Dew Point 38 °F    
Average Humidity 75    
Maximum Humidity 100    
Minimum Humidity 50    
Precipitation  
Precipitation 0.01 in 0.11 in 2.01 in (1933)
Month to date precipitation 0.87 2.24  
Year to date precipitation 6.17 6.23  
Sea Level Pressure  
Sea Level Pressure 30.11 in    
Wind  
Wind Speed 13 mph (ESE)    
Max Wind Speed 22 mph    
Max Gust Speed 36 mph    
Visibility 8 miles    
Events Fog , Rain    
T = Trace of Precipitation, MM = Missing Value Source: NWS Daily Summary

Daily Weather History Graph

Daily Weather History Graph

Search for Another Location

Airport or City:

Astronomy

May. 23, 2013 Rise Set
Actual Time 5:21 AM MDT 8:21 PM MDT
Civil Twilight 4:47 AM MDT 8:56 PM MDT
Nautical Twilight 4:03 AM MDT 9:39 PM MDT
Astronomical Twilight 3:11 AM MDT 10:31 PM MDT
Moon 6:54 PM MDT (5/23) 4:11 AM MDT (5/23)
Length of Visible Light 16h 08m
Length of Day
15h 00m
Waxing Gibbous, 97% of the Moon is Illuminated
May 23
Waxing Gibbous
May 24
Full
May 31
Last Quarter
Jun 8
New
Jun 16
First Quarter

Hourly Weather History & Observations

Time (MDT) Temp. Windchill Dew Point Humidity Pressure Visibility Wind Dir Wind Speed Gust Speed Precip Events Conditions
12:35 AM 42.8 °F 35.4 °F 39.2 °F 87% 30.16 in 6.0 mi East 15.0 mph 20.7 mph 0.00 in Rain Light Rain
12:53 AM 42.1 °F 35.2 °F 39.9 °F 92% 30.10 in 8.0 mi East 12.7 mph 20.7 mph 0.00 in Rain Light Rain
1:30 AM 42.8 °F 36.6 °F 39.2 °F 87% 30.17 in 8.0 mi East 11.5 mph 18.4 mph 0.01 in   Overcast
1:53 AM 41.0 °F 32.5 °F 39.9 °F 96% 30.09 in 7.0 mi East 17.3 mph 23.0 mph 0.01 in Rain Light Rain
2:53 AM 41.0 °F 34.3 °F 37.9 °F 89% 30.09 in 10.0 mi East 11.5 mph - 0.00 in   Overcast
3:13 AM 41.0 °F 34.7 °F 39.2 °F 93% 30.16 in 2.5 mi East 10.4 mph 21.9 mph N/A   Overcast
3:17 AM 41.0 °F 34.3 °F 39.2 °F 93% 30.16 in 0.8 mi ESE 11.5 mph 19.6 mph N/A   Overcast
3:53 AM 39.9 °F 32.9 °F 39.0 °F 97% 30.14 in 0.5 mi East 11.5 mph 19.6 mph N/A Fog Fog
4:01 AM 39.2 °F 31.6 °F 39.2 °F 100% 30.16 in 2.5 mi East 12.7 mph 26.5 mph N/A   Overcast
4:08 AM 39.2 °F 30.5 °F 39.2 °F 100% 30.16 in 8.0 mi East 16.1 mph 24.2 mph N/A   Overcast
4:16 AM 39.2 °F 30.8 °F 39.2 °F 100% 30.16 in 1.5 mi East 15.0 mph 21.9 mph N/A   Overcast
4:25 AM 41.0 °F 34.3 °F 39.2 °F 93% 30.16 in 0.5 mi East 11.5 mph 26.5 mph N/A Fog Fog
4:34 AM 39.2 °F 30.5 °F 39.2 °F 100% 30.16 in 2.5 mi ESE 16.1 mph 24.2 mph N/A   Overcast
4:41 AM 39.2 °F 30.2 °F 39.2 °F 100% 30.16 in 10.0 mi East 17.3 mph 24.2 mph N/A   Overcast
4:53 AM 39.9 °F 32.1 °F 39.0 °F 97% 30.13 in 10.0 mi ESE 13.8 mph 21.9 mph N/A   Overcast
5:27 AM 39.2 °F 30.5 °F 37.4 °F 93% 30.17 in 10.0 mi ESE 16.1 mph 23.0 mph N/A   Overcast
5:53 AM 39.9 °F 35.1 °F 37.0 °F 89% 30.14 in 10.0 mi SE 6.9 mph - N/A   Overcast
6:06 AM 39.2 °F 30.8 °F 35.6 °F 87% 30.18 in 10.0 mi SE 15.0 mph 23.0 mph N/A   Overcast
6:53 AM 41.0 °F 34.3 °F 35.1 °F 79% 30.17 in 10.0 mi SE 11.5 mph 17.3 mph N/A   Overcast
7:53 AM 42.1 °F 35.7 °F 33.1 °F 70% 30.16 in 10.0 mi SE 11.5 mph 25.3 mph N/A   Overcast
8:53 AM 45.0 °F 38.2 °F 30.9 °F 58% 30.15 in 10.0 mi SE 15.0 mph 26.5 mph N/A   Mostly Cloudy
9:02 AM 44.6 °F 37.4 °F 32.0 °F 61% 30.19 in 10.0 mi SE 16.1 mph 29.9 mph N/A   Scattered Clouds
9:46 AM 46.4 °F 39.8 °F 35.6 °F 66% 30.18 in 10.0 mi ESE 16.1 mph 26.5 mph N/A   Mostly Cloudy
9:53 AM 45.0 °F 38.2 °F 35.1 °F 68% 30.14 in 10.0 mi SE 15.0 mph 32.2 mph N/A   Mostly Cloudy
10:50 AM 48.2 °F - 33.8 °F 58% 30.17 in 10.0 mi SE 17.3 mph 31.1 mph N/A   Scattered Clouds
10:53 AM 48.0 °F - 34.0 °F 58% 30.12 in 10.0 mi ESE 15.0 mph 31.1 mph N/A   Scattered Clouds
11:53 AM 50.0 °F - 35.1 °F 57% 30.12 in 10.0 mi SE 19.6 mph 29.9 mph N/A   Scattered Clouds
12:53 PM 53.1 °F - 36.0 °F 52% 30.08 in 10.0 mi ESE 12.7 mph 28.8 mph N/A   Scattered Clouds
1:53 PM 55.0 °F - 37.9 °F 53% 30.07 in 10.0 mi ESE 19.6 mph 31.1 mph N/A   Mostly Cloudy
2:53 PM 52.0 °F - 37.9 °F 59% 30.07 in 10.0 mi SE 15.0 mph 27.6 mph N/A   Overcast
3:53 PM 54.0 °F - 39.0 °F 57% 30.06 in 10.0 mi ESE 16.1 mph 29.9 mph N/A   Overcast
4:53 PM 55.9 °F - 39.0 °F 53% 30.04 in 10.0 mi SE 11.5 mph 24.2 mph N/A   Overcast
5:53 PM 55.9 °F - 39.0 °F 53% 30.03 in 10.0 mi SE 9.2 mph 21.9 mph N/A   Overcast
6:53 PM 55.0 °F - 39.9 °F 57% 30.01 in 10.0 mi SSE 11.5 mph 21.9 mph N/A   Mostly Cloudy
7:53 PM 55.0 °F - 42.1 °F 62% 30.00 in 10.0 mi SSE 12.7 mph 21.9 mph N/A   Overcast
8:53 PM 54.0 °F - 42.1 °F 64% 29.99 in 10.0 mi SE 10.4 mph 21.9 mph N/A   Overcast
9:40 PM 53.6 °F - 42.8 °F 67% 30.09 in 10.0 mi SE 12.7 mph 23.0 mph N/A   Overcast
9:53 PM 53.1 °F - 42.1 °F 66% 30.00 in 10.0 mi SE 9.2 mph 26.5 mph N/A   Overcast
10:02 PM 53.6 °F - 42.8 °F 67% 30.09 in 10.0 mi SE 8.1 mph 20.7 mph N/A   Overcast
10:16 PM 51.8 °F - 42.8 °F 71% 30.09 in 10.0 mi SSE 10.4 mph 19.6 mph N/A   Overcast
10:53 PM 52.0 °F - 42.1 °F 69% 29.99 in 10.0 mi SSE 11.5 mph 25.3 mph N/A   Overcast
11:53 PM 51.1 °F - 43.0 °F 74% 29.97 in 10.0 mi SSE 8.1 mph 24.2 mph N/A   Overcast